Time,TemperatureF,DewpointF,PressureIn,WindDirection,WindDirectionDegrees,WindSpeedMPH,WindSpeedGustMPH,Humidity,HourlyPrecipIn,Conditions,Clouds,dailyrainin,SoftwareType,DateUTC
2013-04-21 00:01:00,42.0,32.6,30.32,East,87,0.0,0.0,69,0.00,CLR,,0.00,WeatherDisplay:10.37,2013-04-21 04:01:00,
2013-04-21 00:02:00,42.0,33.3,30.32,East,88,0.0,0.0,71,0.00,CLR,,0.00,WeatherDisplay:10.37,2013-04-21 04:02:00,
2013-04-21 00:03:00,42.0,33.6,30.32,East,87,0.0,0.0,72,0.00,CLR,,0.00,WeatherDisplay:10.37,2013-04-21 04:03:00,
2013-04-21 00:05:00,41.9,33.5,30.32,East,87,0.0,0.0,72,0.00,CLR,,0.00,WeatherDisplay:10.37,2013-04-21 04:05:00,
2013-04-21 00:10:00,41.7,33.0,30.32,East,87,0.0,0.0,71,0.00,CLR,,0.00,WeatherDisplay:10.37,2013-04-21 04:10:00,
2013-04-21 00:12:00,41.6,33.2,30.32,East,88,0.0,0.0,72,0.00,CLR,,0.00,WeatherDisplay:10.37,2013-04-21 04:12:00,
2013-04-21 00:18:00,41.5,33.1,30.33,East,87,0.0,0.0,72,0.00,CLR,,0.00,WeatherDisplay:10.37,2013-04-21 04:18:00,
2013-04-21 00:23:00,41.2,33.2,30.32,East,87,0.0,0.0,73,0.00,CLR,,0.00,WeatherDisplay:10.37,2013-04-21 04:23:00,
2013-04-21 00:28:00,41.1,33.1,30.32,East,87,0.0,0.0,73,0.00,CLR,,0.00,WeatherDisplay:10.37,2013-04-21 04:28:00,
2013-04-21 00:33:00,41.0,32.0,30.33,East,88,0.0,0.0,70,0.00,CLR,,0.00,WeatherDisplay:10.37,2013-04-21 04:33:00,
2013-04-21 00:38:00,41.2,31.4,30.33,East,87,0.0,0.0,68,0.00,CLR,,0.00,WeatherDisplay:10.37,2013-04-21 04:38:00,
2013-04-21 00:43:00,41.5,30.6,30.33,East,87,0.0,0.0,65,0.00,CLR,,0.00,WeatherDisplay:10.37,2013-04-21 04:43:00,
2013-04-21 00:48:00,41.7,31.9,30.33,East,87,0.0,0.0,68,0.00,CLR,,0.00,WeatherDisplay:10.37,2013-04-21 04:48:00,
2013-04-21 00:53:00,41.9,31.0,30.33,East,89,0.0,0.0,65,0.00,CLR,,0.00,WeatherDisplay:10.37,2013-04-21 04:53:00,
2013-04-21 00:58:00,42.0,31.1,30.33,East,89,0.0,0.0,65,0.00,CLR,,0.00,WeatherDisplay:10.37,2013-04-21 04:58:00,
2013-04-21 01:03:00,42.1,30.4,30.33,NE,56,0.0,0.0,63,0.00,CLR,,0.00,WeatherDisplay:10.37,2013-04-21 05:03:00,
2013-04-21 01:08:00,42.3,30.6,30.34,NE,56,0.9,1.1,63,0.00,CLR,,0.00,WeatherDisplay:10.37,2013-04-21 05:08:00,
2013-04-21 01:13:00,42.5,31.9,30.34,NE,53,0.0,0.0,66,0.00,CLR,,0.00,WeatherDisplay:10.37,2013-04-21 05:13:00,
2013-04-21 01:18:00,42.4,30.3,30.34,NE,54,0.0,0.0,62,0.00,CLR,,0.00,WeatherDisplay:10.37,2013-04-21 05:18:00,
2013-04-21 01:23:00,42.5,30.0,30.34,NE,54,0.0,0.0,61,0.00,CLR,,0.00,WeatherDisplay:10.37,2013-04-21 05:23:00,
2013-04-21 01:28:00,42.6,29.7,30.34,WSW,250,0.0,1.1,60,0.00,CLR,,0.00,WeatherDisplay:10.37,2013-04-21 05:28:00,
2013-04-21 01:33:00,42.7,30.6,30.34,WSW,250,0.0,0.0,62,0.00,CLR,,0.00,WeatherDisplay:10.37,2013-04-21 05:33:00,
2013-04-21 01:38:00,42.5,31.6,30.34,WSW,250,0.0,0.0,65,0.00,CLR,,0.00,WeatherDisplay:10.37,2013-04-21 05:38:00,
2013-04-21 01:43:00,42.4,29.5,30.34,SW,232,0.0,2.3,60,0.00,CLR,,0.00,WeatherDisplay:10.37,2013-04-21 05:43:00,
2013-04-21 01:48:00,42.4,29.9,30.34,SW,227,0.0,1.1,61,0.00,CLR,,0.00,WeatherDisplay:10.37,2013-04-21 05:48:00,
2013-04-21 01:53:00,42.3,29.8,30.34,WNW,297,0.0,0.0,61,0.00,CLR,,0.00,WeatherDisplay:10.37,2013-04-21 05:53:00,
2013-04-21 01:59:00,42.1,30.0,30.34,NW,306,0.8,3.0,62,0.00,CLR,,0.00,WeatherDisplay:10.37,2013-04-21 05:59:00,
2013-04-21 02:04:00,42.2,29.7,30.34,NW,314,0.0,0.0,61,0.00,CLR,,0.00,WeatherDisplay:10.37,2013-04-21 06:04:00,
2013-04-21 02:09:00,42.2,29.3,30.34,SW,234,0.0,0.0,60,0.00,CLR,,0.00,WeatherDisplay:10.37,2013-04-21 06:09:00,
2013-04-21 02:14:00,42.2,29.3,30.34,WNW,292,0.1,1.0,60,0.00,CLR,,0.00,WeatherDisplay:10.37,2013-04-21 06:14:00,
2013-04-21 02:19:00,42.2,29.7,30.34,WSW,239,0.4,2.3,61,0.00,CLR,,0.00,WeatherDisplay:10.37,2013-04-21 06:19:00,
2013-04-21 02:24:00,42.0,29.9,30.34,ESE,107,0.1,1.1,62,0.00,CLR,,0.00,WeatherDisplay:10.37,2013-04-21 06:24:00,
2013-04-21 02:29:00,41.6,29.9,30.34,ESE,107,0.2,1.1,63,0.00,CLR,,0.00,WeatherDisplay:10.37,2013-04-21 06:29:00,
2013-04-21 02:34:00,41.3,29.6,30.34,ESE,108,0.0,0.0,63,0.00,CLR,,0.00,WeatherDisplay:10.37,2013-04-21 06:34:00,
2013-04-21 02:39:00,41.2,29.9,30.34,ESE,107,0.0,0.0,64,0.00,CLR,,0.00,WeatherDisplay:10.37,2013-04-21 06:39:00,
2013-04-21 02:44:00,41.2,29.9,30.34,ESE,107,0.0,0.0,64,0.00,CLR,,0.00,WeatherDisplay:10.37,2013-04-21 06:44:00,
2013-04-21 02:49:00,41.2,29.2,30.34,East,89,0.0,0.0,62,0.00,CLR,,0.00,WeatherDisplay:10.37,2013-04-21 06:49:00,
2013-04-21 02:55:00,41.2,30.3,30.34,East,90,0.0,0.0,65,0.00,CLR,,0.00,WeatherDisplay:10.37,2013-04-21 06:55:00,
2013-04-21 03:00:00,40.9,29.7,30.34,SW,232,0.0,0.0,64,0.00,CLR,,0.00,WeatherDisplay:10.37,2013-04-21 07:00:00,
2013-04-21 03:05:00,40.7,29.8,30.34,SW,218,0.0,0.0,65,0.00,CLR,,0.00,WeatherDisplay:10.37,2013-04-21 07:05:00,
2013-04-21 03:10:00,40.8,31.1,30.35,East,96,0.0,0.0,68,0.00,CLR,,0.00,WeatherDisplay:10.37,2013-04-21 07:10:00,
2013-04-21 03:15:00,40.5,32.2,30.35,East,96,0.1,1.1,72,0.00,CLR,,0.00,WeatherDisplay:10.37,2013-04-21 07:15:00,
2013-04-21 03:20:00,39.9,31.9,30.35,East,96,0.0,0.0,73,0.00,CLR,,0.00,WeatherDisplay:10.37,2013-04-21 07:20:00,
2013-04-21 03:25:00,39.5,32.2,30.35,East,96,0.0,0.0,75,0.00,CLR,,0.00,WeatherDisplay:10.37,2013-04-21 07:25:00,
2013-04-21 03:30:00,38.9,32.6,30.36,East,96,0.0,0.0,78,0.00,CLR,,0.00,WeatherDisplay:10.37,2013-04-21 07:30:00,
2013-04-21 03:35:00,38.3,31.7,30.36,East,96,0.0,0.0,77,0.00,CLR,,0.00,WeatherDisplay:10.37,2013-04-21 07:35:00,
2013-04-21 03:40:00,38.0,31.1,30.36,East,96,0.0,0.0,76,0.00,CLR,,0.00,WeatherDisplay:10.37,2013-04-21 07:40:00,
2013-04-21 03:45:00,37.9,32.0,30.36,East,96,0.0,0.0,79,0.00,CLR,,0.00,WeatherDisplay:10.37,2013-04-21 07:45:00,
2013-04-21 03:50:00,37.7,31.5,30.36,East,96,0.0,0.0,78,0.00,CLR,,0.00,WeatherDisplay:10.37,2013-04-21 07:50:00,
2013-04-21 03:55:00,37.3,31.4,30.37,East,96,0.0,0.0,79,0.00,CLR,,0.00,WeatherDisplay:10.37,2013-04-21 07:55:00,
2013-04-21 04:00:00,36.9,31.0,30.37,ESE,115,0.0,0.0,79,0.00,CLR,,0.00,WeatherDisplay:10.37,2013-04-21 08:00:00,
2013-04-21 04:05:00,36.6,31.0,30.37,ESE,115,0.0,0.0,80,0.00,CLR,,0.00,WeatherDisplay:10.37,2013-04-21 08:05:00,
2013-04-21 04:10:00,36.6,31.0,30.37,ESE,115,0.0,0.0,80,0.00,CLR,,0.00,WeatherDisplay:10.37,2013-04-21 08:10:00,
2013-04-21 04:15:00,36.5,31.2,30.38,ESE,115,0.0,1.1,81,0.00,CLR,,0.00,WeatherDisplay:10.37,2013-04-21 08:15:00,
2013-04-21 04:20:00,36.3,31.0,30.38,ESE,115,0.0,0.0,81,0.00,CLR,,0.00,WeatherDisplay:10.37,2013-04-21 08:20:00,
2013-04-21 04:25:00,36.2,31.2,30.38,ESE,115,0.0,0.0,82,0.00,CLR,,0.00,WeatherDisplay:10.37,2013-04-21 08:25:00,
2013-04-21 04:30:00,36.3,31.3,30.39,ESE,115,0.0,0.0,82,0.00,CLR,,0.00,WeatherDisplay:10.37,2013-04-21 08:30:00,
2013-04-21 04:35:00,36.2,31.2,30.39,ESE,117,0.0,0.0,82,0.00,CLR,,0.00,WeatherDisplay:10.37,2013-04-21 08:35:00,
2013-04-21 04:40:00,35.9,30.9,30.39,SSE,163,0.0,0.0,82,0.00,CLR,,0.00,WeatherDisplay:10.37,2013-04-21 08:40:00,
2013-04-21 04:45:00,35.7,30.7,30.39,SSE,163,0.0,0.0,82,0.00,CLR,,0.00,WeatherDisplay:10.37,2013-04-21 08:45:00,
2013-04-21 04:50:00,35.6,30.9,30.39,SSE,162,0.0,0.0,83,0.00,CLR,,0.00,WeatherDisplay:10.37,2013-04-21 08:50:00,
2013-04-21 04:55:00,35.6,31.2,30.40,ESE,103,0.7,2.3,84,0.00,CLR,,0.00,WeatherDisplay:10.37,2013-04-21 08:55:00,
2013-04-21 05:00:00,35.5,31.4,30.40,SW,225,0.0,1.1,85,0.00,CLR,,0.00,WeatherDisplay:10.37,2013-04-21 09:00:00,
2013-04-21 05:05:00,35.1,31.0,30.41,SW,225,0.0,0.0,85,0.00,CLR,,0.00,WeatherDisplay:10.37,2013-04-21 09:05:00,
2013-04-21 05:10:00,34.9,30.8,30.41,SW,225,0.0,0.0,85,0.00,CLR,,0.00,WeatherDisplay:10.37,2013-04-21 09:10:00,
2013-04-21 05:15:00,35.0,29.8,30.41,SW,225,0.0,0.0,81,0.00,CLR,,0.00,WeatherDisplay:10.37,2013-04-21 09:15:00,
2013-04-21 05:20:00,35.4,29.8,30.41,SW,225,0.0,0.0,80,0.00,CLR,,0.00,WeatherDisplay:10.37,2013-04-21 09:20:00,
2013-04-21 05:25:00,35.6,30.6,30.41,SW,225,0.0,0.0,82,0.00,CLR,,0.00,WeatherDisplay:10.37,2013-04-21 09:25:00,
2013-04-21 05:30:00,35.3,30.7,30.42,SW,236,0.0,0.0,83,0.00,CLR,,0.00,WeatherDisplay:10.37,2013-04-21 09:30:00,
2013-04-21 05:35:00,35.1,30.5,30.42,SW,236,0.0,0.0,83,0.00,CLR,,0.00,WeatherDisplay:10.37,2013-04-21 09:35:00,
2013-04-21 05:40:00,34.9,30.3,30.42,SW,236,0.0,0.0,83,0.00,CLR,,0.00,WeatherDisplay:10.37,2013-04-21 09:40:00,
2013-04-21 05:45:00,34.8,30.2,30.43,SW,236,0.0,0.0,83,0.00,CLR,,0.00,WeatherDisplay:10.37,2013-04-21 09:45:00,
2013-04-21 05:50:00,35.1,29.2,30.43,SW,235,0.0,0.0,79,0.00,CLR,,0.00,WeatherDisplay:10.37,2013-04-21 09:50:00,
2013-04-21 05:55:00,35.4,29.8,30.43,SW,236,0.0,0.0,80,0.00,CLR,,0.00,WeatherDisplay:10.37,2013-04-21 09:55:00,
2013-04-21 06:01:00,35.5,30.5,30.43,SW,236,0.0,0.0,82,0.00,CLR,,0.00,WeatherDisplay:10.37,2013-04-21 10:01:00,
2013-04-21 06:06:00,35.5,30.5,30.44,SW,236,0.0,0.0,82,0.00,CLR,,0.00,WeatherDisplay:10.37,2013-04-21 10:06:00,
2013-04-21 06:11:00,35.5,30.2,30.44,SW,236,0.0,0.0,81,0.00,CLR,,0.00,WeatherDisplay:10.37,2013-04-21 10:11:00,
2013-04-21 06:16:00,35.6,29.7,30.44,SW,236,0.0,0.0,79,0.00,CLR,,0.00,WeatherDisplay:10.37,2013-04-21 10:16:00,
2013-04-21 06:22:00,35.8,29.6,30.45,SW,236,0.0,0.0,78,0.00,CLR,,0.00,WeatherDisplay:10.37,2013-04-21 10:22:00,
2013-04-21 06:27:00,35.9,29.7,30.44,SW,236,0.0,0.0,78,0.00,CLR,,0.00,WeatherDisplay:10.37,2013-04-21 10:27:00,
2013-04-21 06:32:00,36.0,29.8,30.45,SW,235,0.0,1.1,78,0.00,CLR,,0.00,WeatherDisplay:10.37,2013-04-21 10:32:00,
2013-04-21 06:37:00,36.0,30.1,30.45,SW,235,0.0,0.0,79,0.00,CLR,,0.00,WeatherDisplay:10.37,2013-04-21 10:37:00,
2013-04-21 06:42:00,35.8,30.2,30.45,SW,235,0.0,0.0,80,0.00,CLR,,0.00,WeatherDisplay:10.37,2013-04-21 10:42:00,
2013-04-21 06:47:00,35.6,30.0,30.45,SW,235,0.0,0.0,80,0.00,CLR,,0.00,WeatherDisplay:10.37,2013-04-21 10:47:00,
2013-04-21 06:52:00,35.7,29.2,30.46,SW,235,0.0,0.0,77,0.00,CLR,,0.00,WeatherDisplay:10.37,2013-04-21 10:52:00,
2013-04-21 06:57:00,36.1,29.9,30.46,SW,234,0.0,0.0,78,0.00,CLR,,0.00,WeatherDisplay:10.37,2013-04-21 10:57:00,
2013-04-21 07:03:00,36.4,30.8,30.46,SW,235,0.0,0.0,80,0.00,CLR,,0.00,WeatherDisplay:10.37,2013-04-21 11:03:00,
2013-04-21 07:08:00,36.7,30.2,30.47,SW,235,0.0,0.0,77,0.00,CLR,,0.00,WeatherDisplay:10.37,2013-04-21 11:08:00,
2013-04-21 07:13:00,36.9,30.0,30.47,SW,235,0.0,0.0,76,0.00,CLR,,0.00,WeatherDisplay:10.37,2013-04-21 11:13:00,
2013-04-21 07:18:00,37.1,30.2,30.47,SW,235,0.0,0.0,76,0.00,CLR,,0.00,WeatherDisplay:10.37,2013-04-21 11:18:00,
2013-04-21 07:23:00,37.3,30.1,30.48,SW,235,0.0,0.0,75,0.00,CLR,,0.00,WeatherDisplay:10.37,2013-04-21 11:23:00,
2013-04-21 07:28:00,37.5,30.9,30.48,SW,235,0.0,0.0,77,0.00,CLR,,0.00,WeatherDisplay:10.37,2013-04-21 11:28:00,
2013-04-21 07:33:00,37.8,31.2,30.48,SW,235,0.0,0.0,77,0.00,CLR,,0.00,WeatherDisplay:10.37,2013-04-21 11:33:00,
2013-04-21 07:38:00,38.0,31.4,30.49,SW,235,0.0,0.0,77,0.00,CLR,,0.00,WeatherDisplay:10.37,2013-04-21 11:38:00,
2013-04-21 07:43:00,38.1,30.9,30.49,SW,235,0.0,0.0,75,0.00,CLR,,0.00,WeatherDisplay:10.37,2013-04-21 11:43:00,
2013-04-21 07:48:00,38.3,30.7,30.49,SW,235,0.0,0.0,74,0.00,CLR,,0.00,WeatherDisplay:10.37,2013-04-21 11:48:00,
2013-04-21 07:53:00,38.5,30.9,30.49,SW,235,0.0,0.0,74,0.00,CLR,,0.00,WeatherDisplay:10.37,2013-04-21 11:53:00,
2013-04-21 07:58:00,38.6,31.0,30.50,SW,235,0.0,0.0,74,0.00,CLR,,0.00,WeatherDisplay:10.37,2013-04-21 11:58:00,
2013-04-21 08:03:00,38.7,31.1,30.50,SW,235,0.0,0.0,74,0.00,CLR,,0.00,WeatherDisplay:10.37,2013-04-21 12:03:00,
2013-04-21 08:08:00,38.8,31.2,30.50,SW,235,0.0,0.0,74,0.00,CLR,,0.00,WeatherDisplay:10.37,2013-04-21 12:08:00,
2013-04-21 08:13:00,39.0,32.1,30.50,SW,235,0.0,0.0,76,0.00,CLR,,0.00,WeatherDisplay:10.37,2013-04-21 12:13:00,
2013-04-21 08:18:00,39.3,32.7,30.50,SW,235,0.0,0.0,77,0.00,CLR,,0.00,WeatherDisplay:10.37,2013-04-21 12:18:00,
2013-04-21 08:23:00,39.8,32.8,30.50,SW,230,0.0,0.0,76,0.00,CLR,,0.00,WeatherDisplay:10.37,2013-04-21 12:23:00,
2013-04-21 08:28:00,40.1,32.8,30.50,SW,230,0.0,0.0,75,0.00,CLR,,0.00,WeatherDisplay:10.37,2013-04-21 12:28:00,
2013-04-21 08:33:00,40.4,31.7,30.50,SW,231,0.0,0.0,71,0.00,CLR,,0.00,WeatherDisplay:10.37,2013-04-21 12:33:00,
2013-04-21 08:38:00,41.1,31.7,30.50,West,269,0.0,0.0,69,0.00,CLR,,0.00,WeatherDisplay:10.37,2013-04-21 12:38:00,
2013-04-21 08:43:00,41.4,30.9,30.50,West,269,0.0,1.1,66,0.00,CLR,,0.00,WeatherDisplay:10.37,2013-04-21 12:43:00,
2013-04-21 08:48:00,42.1,31.2,30.50,NE,56,0.1,1.1,65,0.00,CLR,,0.00,WeatherDisplay:10.37,2013-04-21 12:48:00,
2013-04-21 08:53:00,42.6,31.3,30.50,West,274,0.0,0.0,64,0.00,CLR,,0.00,WeatherDisplay:10.37,2013-04-21 12:53:00,
2013-04-21 08:58:00,42.8,31.1,30.51,South,187,0.0,0.0,63,0.00,CLR,,0.00,WeatherDisplay:10.37,2013-04-21 12:58:00,
2013-04-21 09:03:00,43.0,30.9,30.51,SSW,207,0.0,2.3,62,0.00,CLR,,0.00,WeatherDisplay:10.37,2013-04-21 13:03:00,
2013-04-21 09:08:00,43.1,31.4,30.51,SSW,212,0.0,1.1,63,0.00,CLR,,0.00,WeatherDisplay:10.37,2013-04-21 13:08:00,
2013-04-21 09:13:00,43.4,31.2,30.51,SSE,167,0.0,1.1,62,0.00,CLR,,0.00,WeatherDisplay:10.37,2013-04-21 13:13:00,
2013-04-21 09:18:00,43.6,30.6,30.51,WNW,297,0.2,2.3,60,0.00,CLR,,0.00,WeatherDisplay:10.37,2013-04-21 13:18:00,
2013-04-21 09:23:00,43.9,31.3,30.51,SW,233,0.1,1.1,61,0.00,CLR,,0.00,WeatherDisplay:10.37,2013-04-21 13:23:00,
2013-04-21 09:28:00,44.2,31.6,30.51,WSW,252,1.3,2.3,61,0.00,CLR,,0.00,WeatherDisplay:10.37,2013-04-21 13:28:00,
2013-04-21 09:34:00,44.4,31.8,30.51,West,260,0.0,0.0,61,0.00,CLR,,0.00,WeatherDisplay:10.37,2013-04-21 13:34:00,
2013-04-21 09:39:00,44.7,31.7,30.51,SW,215,0.4,3.5,60,0.00,CLR,,0.00,WeatherDisplay:10.37,2013-04-21 13:39:00,
2013-04-21 09:44:00,45.1,31.2,30.51,East,94,0.4,2.0,58,0.00,CLR,,0.00,WeatherDisplay:10.37,2013-04-21 13:44:00,
2013-04-21 09:49:00,45.5,30.7,30.51,NE,46,0.5,2.3,56,0.00,CLR,,0.00,WeatherDisplay:10.37,2013-04-21 13:49:00,
2013-04-21 09:54:00,45.8,31.0,30.51,South,169,0.3,3.5,56,0.00,CLR,,0.00,WeatherDisplay:10.37,2013-04-21 13:54:00,
2013-04-21 10:00:00,46.0,31.2,30.52,SE,134,0.0,1.1,56,0.00,CLR,,0.00,WeatherDisplay:10.37,2013-04-21 14:00:00,
2013-04-21 10:05:00,46.3,30.5,30.52,SE,132,0.0,2.3,54,0.00,CLR,,0.00,WeatherDisplay:10.37,2013-04-21 14:05:00,
2013-04-21 10:10:00,46.7,30.9,30.52,SE,137,0.3,1.1,54,0.00,CLR,,0.00,WeatherDisplay:10.37,2013-04-21 14:10:00,
2013-04-21 10:16:00,47.0,30.7,30.52,West,281,0.1,2.3,53,0.00,CLR,,0.00,WeatherDisplay:10.37,2013-04-21 14:16:00,
2013-04-21 10:21:00,47.3,30.1,30.52,ENE,70,1.6,3.0,51,0.00,CLR,,0.00,WeatherDisplay:10.37,2013-04-21 14:21:00,
2013-04-21 10:27:00,47.3,30.1,30.52,East,84,0.7,2.3,51,0.00,CLR,,0.00,WeatherDisplay:10.37,2013-04-21 14:27:00,
2013-04-21 10:32:00,47.8,30.0,30.52,NE,48,2.3,3.5,50,0.00,CLR,,0.00,WeatherDisplay:10.37,2013-04-21 14:32:00,
2013-04-21 10:38:00,47.8,30.0,30.52,ENE,58,2.0,0.0,50,0.00,CLR,,0.00,WeatherDisplay:10.37,2013-04-21 14:38:00,
2013-04-21 10:43:00,48.0,31.7,30.52,WNW,301,1.0,0.0,53,0.00,CLR,,0.00,WeatherDisplay:10.37,2013-04-21 14:43:00,
2013-04-21 10:48:00,48.8,31.5,30.52,ENE,66,1.0,0.0,51,0.00,CLR,,0.00,WeatherDisplay:10.37,2013-04-21 14:48:00,
2013-04-21 10:53:00,49.4,32.5,30.52,SW,214,1.4,4.0,52,0.00,CLR,,0.00,WeatherDisplay:10.37,2013-04-21 14:53:00,
2013-04-21 10:58:00,50.3,33.3,30.52,East,97,0.7,2.3,52,0.00,CLR,,0.00,WeatherDisplay:10.37,2013-04-21 14:58:00,
2013-04-21 11:03:00,50.9,32.4,30.52,WSW,246,1.2,3.0,49,0.00,CLR,,0.00,WeatherDisplay:10.37,2013-04-21 15:03:00,
2013-04-21 11:08:00,51.4,33.4,30.52,ENE,72,0.1,1.1,50,0.00,CLR,,0.00,WeatherDisplay:10.37,2013-04-21 15:08:00,
2013-04-21 11:13:00,51.6,32.5,30.52,ENE,70,0.6,2.3,48,0.00,CLR,,0.00,WeatherDisplay:10.37,2013-04-21 15:13:00,
2013-04-21 11:18:00,51.7,33.1,30.52,North,3,1.0,2.3,49,0.00,CLR,,0.00,WeatherDisplay:10.37,2013-04-21 15:18:00,
2013-04-21 11:23:00,52.6,32.9,30.52,SE,124,1.2,2.3,47,0.00,CLR,,0.00,WeatherDisplay:10.37,2013-04-21 15:23:00,
2013-04-21 11:28:00,52.8,33.6,30.52,NW,309,0.1,2.3,48,0.00,CLR,,0.00,WeatherDisplay:10.37,2013-04-21 15:28:00,
2013-04-21 11:33:00,53.7,32.8,30.52,SSE,165,0.4,2.3,45,0.00,CLR,,0.00,WeatherDisplay:10.37,2013-04-21 15:33:00,
2013-04-21 11:38:00,53.8,32.4,30.52,East,91,1.3,3.5,44,0.00,CLR,,0.00,WeatherDisplay:10.37,2013-04-21 15:38:00,
2013-04-21 11:43:00,52.6,32.4,30.52,ESE,117,0.9,1.1,46,0.00,CLR,,0.00,WeatherDisplay:10.37,2013-04-21 15:43:00,
2013-04-21 11:48:00,53.2,32.4,30.52,WNW,283,1.2,3.5,45,0.00,CLR,,0.00,WeatherDisplay:10.37,2013-04-21 15:48:00,
2013-04-21 11:53:00,53.4,33.7,30.52,East,84,0.3,3.5,47,0.00,CLR,,0.00,WeatherDisplay:10.37,2013-04-21 15:53:00,
2013-04-21 11:59:00,54.1,33.8,30.52,East,95,0.0,3.5,46,0.00,CLR,,0.00,WeatherDisplay:10.37,2013-04-21 15:59:00,
2013-04-21 12:04:00,54.7,33.2,30.52,NW,323,1.4,3.5,44,0.00,CLR,,0.00,WeatherDisplay:10.37,2013-04-21 16:04:00,
2013-04-21 12:09:00,54.1,32.1,30.52,South,188,2.4,5.0,43,0.00,CLR,,0.00,WeatherDisplay:10.37,2013-04-21 16:09:00,
2013-04-21 12:14:00,54.3,33.9,30.52,WSW,239,0.4,3.5,46,0.00,CLR,,0.00,WeatherDisplay:10.37,2013-04-21 16:14:00,
2013-04-21 12:19:00,54.5,32.4,30.52,East,89,0.7,3.5,43,0.00,CLR,,0.00,WeatherDisplay:10.37,2013-04-21 16:19:00,
2013-04-21 12:24:00,54.1,32.6,30.52,East,80,0.5,3.5,44,0.00,CLR,,0.00,WeatherDisplay:10.37,2013-04-21 16:24:00,
2013-04-21 12:29:00,54.6,33.7,30.51,NE,46,0.3,2.0,45,0.00,CLR,,0.00,WeatherDisplay:10.37,2013-04-21 16:29:00,
2013-04-21 12:34:00,54.0,32.6,30.51,NNE,18,0.9,3.5,44,0.00,CLR,,0.00,WeatherDisplay:10.37,2013-04-21 16:34:00,
2013-04-21 12:39:00,53.9,33.6,30.51,SE,128,0.2,3.5,46,0.00,CLR,,0.00,WeatherDisplay:10.37,2013-04-21 16:39:00,
2013-04-21 12:44:00,54.4,32.9,30.51,NNW,345,0.0,3.5,44,0.00,CLR,,0.00,WeatherDisplay:10.37,2013-04-21 16:44:00,
2013-04-21 12:49:00,55.2,32.5,30.50,South,171,0.3,1.1,42,0.00,CLR,,0.00,WeatherDisplay:10.37,2013-04-21 16:49:00,
2013-04-21 12:54:00,55.2,33.6,30.50,NNE,18,1.0,3.0,44,0.00,CLR,,0.00,WeatherDisplay:10.37,2013-04-21 16:54:00,
2013-04-21 12:59:00,55.4,34.9,30.50,NW,319,0.2,1.1,46,0.00,CLR,,0.00,WeatherDisplay:10.37,2013-04-21 16:59:00,
2013-04-21 13:04:00,55.8,33.6,30.50,East,98,0.6,2.3,43,0.00,CLR,,0.00,WeatherDisplay:10.37,2013-04-21 17:04:00,
2013-04-21 13:09:00,55.5,32.8,30.50,East,86,0.7,2.3,42,0.00,CLR,,0.00,WeatherDisplay:10.37,2013-04-21 17:09:00,
2013-04-21 13:14:00,55.5,33.9,30.50,SE,132,0.1,1.1,44,0.00,CLR,,0.00,WeatherDisplay:10.37,2013-04-21 17:14:00,
2013-04-21 13:19:00,55.8,35.3,30.49,ENE,68,0.1,2.3,46,0.00,CLR,,0.00,WeatherDisplay:10.37,2013-04-21 17:19:00,
2013-04-21 13:24:00,55.1,33.0,30.49,ESE,109,1.5,2.3,43,0.00,CLR,,0.00,WeatherDisplay:10.37,2013-04-21 17:24:00,
2013-04-21 13:29:00,55.0,34.0,30.49,ESE,104,0.5,1.1,45,0.00,CLR,,0.00,WeatherDisplay:10.37,2013-04-21 17:29:00,
2013-04-21 13:34:00,55.4,34.9,30.49,ESE,120,0.5,2.0,46,0.00,CLR,,0.00,WeatherDisplay:10.37,2013-04-21 17:34:00,
2013-04-21 13:39:00,55.8,34.2,30.49,ESE,107,0.5,2.3,44,0.00,CLR,,0.00,WeatherDisplay:10.37,2013-04-21 17:39:00,
2013-04-21 13:44:00,56.2,33.4,30.49,WNW,288,2.3,6.9,42,0.00,CLR,,0.00,WeatherDisplay:10.37,2013-04-21 17:44:00,
2013-04-21 13:49:00,55.8,33.6,30.49,WSW,253,1.3,5.8,43,0.00,CLR,,0.00,WeatherDisplay:10.37,2013-04-21 17:49:00,
2013-04-21 13:54:00,56.1,33.3,30.48,NE,55,0.7,2.3,42,0.00,CLR,,0.00,WeatherDisplay:10.37,2013-04-21 17:54:00,
2013-04-21 13:59:00,56.2,34.6,30.48,SE,139,1.3,3.0,44,0.00,CLR,,0.00,WeatherDisplay:10.37,2013-04-21 17:59:00,
2013-04-21 14:04:00,57.1,34.8,30.48,ESE,110,1.9,5.0,43,0.00,FEW,,0.00,WeatherDisplay:10.37,2013-04-21 18:04:00,
2013-04-21 14:09:00,57.0,34.7,30.48,NE,44,1.2,2.3,43,0.00,FEW,,0.00,WeatherDisplay:10.37,2013-04-21 18:09:00,
2013-04-21 14:14:00,56.9,34.0,30.48,North,350,0.7,3.5,42,0.00,FEW,,0.00,WeatherDisplay:10.37,2013-04-21 18:14:00,
2013-04-21 14:19:00,57.3,33.8,30.48,NE,46,0.2,1.1,41,0.00,FEW,,0.00,WeatherDisplay:10.37,2013-04-21 18:19:00,
2013-04-21 14:24:00,57.1,34.2,30.48,ESE,115,0.5,3.5,42,0.00,FEW,,0.00,WeatherDisplay:10.37,2013-04-21 18:24:00,
2013-04-21 14:29:00,57.2,34.9,30.47,NE,44,1.4,3.5,43,0.00,FEW,,0.00,WeatherDisplay:10.37,2013-04-21 18:29:00,
2013-04-21 14:34:00,58.5,35.5,30.47,SSE,158,1.7,3.5,42,0.00,FEW,,0.00,WeatherDisplay:10.37,2013-04-21 18:34:00,
2013-04-21 14:40:00,59.2,35.5,30.47,SE,128,0.9,3.5,41,0.00,FEW,,0.00,WeatherDisplay:10.37,2013-04-21 18:40:00,
2013-04-21 14:45:00,58.9,33.3,30.47,West,278,1.4,3.0,38,0.00,FEW,,0.00,WeatherDisplay:10.37,2013-04-21 18:45:00,
2013-04-21 14:50:00,57.8,35.4,30.47,SSE,166,0.3,2.3,43,0.00,FEW,,0.00,WeatherDisplay:10.37,2013-04-21 18:50:00,
2013-04-21 14:55:00,57.9,34.9,30.46,WSW,250,0.3,3.5,42,0.00,FEW,,0.00,WeatherDisplay:10.37,2013-04-21 18:55:00,
2013-04-21 15:00:00,58.5,34.2,30.46,SE,138,1.4,3.5,40,0.00,FEW,,0.00,WeatherDisplay:10.37,2013-04-21 19:00:00,
2013-04-21 15:05:00,59.2,35.5,30.46,East,80,0.4,2.3,41,0.00,FEW,,0.00,WeatherDisplay:10.37,2013-04-21 19:05:00,
2013-04-21 15:10:00,59.6,33.9,30.46,East,96,1.5,4.0,38,0.00,FEW,,0.00,WeatherDisplay:10.37,2013-04-21 19:10:00,
2013-04-21 15:15:00,59.3,35.6,30.45,ENE,68,1.7,3.5,41,0.00,FEW,,0.00,WeatherDisplay:10.37,2013-04-21 19:15:00,
2013-04-21 15:20:00,59.4,35.1,30.46,ESE,119,0.9,3.5,40,0.00,FEW,,0.00,WeatherDisplay:10.37,2013-04-21 19:20:00,
2013-04-21 15:25:00,59.8,33.5,30.45,East,90,1.8,3.5,37,0.00,FEW,,0.00,WeatherDisplay:10.37,2013-04-21 19:25:00,
2013-04-21 15:30:00,59.2,34.2,30.45,SE,125,0.6,1.1,39,0.00,FEW,,0.00,WeatherDisplay:10.37,2013-04-21 19:30:00,
2013-04-21 15:35:00,60.3,34.6,30.45,ENE,65,2.1,3.5,38,0.00,FEW,,0.00,WeatherDisplay:10.37,2013-04-21 19:35:00,
2013-04-21 15:40:00,60.7,34.3,30.45,NE,53,0.7,2.3,37,0.00,FEW,,0.00,WeatherDisplay:10.37,2013-04-21 19:40:00,
2013-04-21 15:45:00,59.7,34.0,30.45,NE,56,1.4,3.0,38,0.00,FEW,,0.00,WeatherDisplay:10.37,2013-04-21 19:45:00,
2013-04-21 15:50:00,59.6,35.9,30.45,SSE,156,0.2,1.1,41,0.00,FEW,,0.00,WeatherDisplay:10.37,2013-04-21 19:50:00,
2013-04-21 15:55:00,59.9,34.2,30.44,NE,44,2.2,4.0,38,0.00,FEW,,0.00,WeatherDisplay:10.37,2013-04-21 19:55:00,
2013-04-21 16:00:00,59.2,34.9,30.45,WSW,243,0.6,3.5,40,0.00,FEW,,0.00,WeatherDisplay:10.37,2013-04-21 20:00:00,
2013-04-21 16:05:00,59.9,34.9,30.44,East,90,0.3,3.5,39,0.00,FEW,,0.00,WeatherDisplay:10.37,2013-04-21 20:05:00,
2013-04-21 16:10:00,59.7,36.6,30.44,SSE,163,0.6,2.3,42,0.00,FEW,,0.00,WeatherDisplay:10.37,2013-04-21 20:10:00,
2013-04-21 16:15:00,61.1,35.9,30.44,ENE,62,0.8,1.1,39,0.00,FEW,,0.00,WeatherDisplay:10.37,2013-04-21 20:15:00,
2013-04-21 16:20:00,60.4,35.3,30.44,North,359,0.5,3.5,39,0.00,FEW,,0.00,WeatherDisplay:10.37,2013-04-21 20:20:00,
2013-04-21 16:25:00,60.7,36.2,30.44,East,85,1.8,4.0,40,0.00,FEW,,0.00,WeatherDisplay:10.37,2013-04-21 20:25:00,
2013-04-21 16:30:00,60.7,36.8,30.44,WSW,246,0.5,2.3,41,0.00,FEW,,0.00,WeatherDisplay:10.37,2013-04-21 20:30:00,
2013-04-21 16:35:00,60.9,35.1,30.44,East,86,2.5,4.0,38,0.00,FEW,,0.00,WeatherDisplay:10.37,2013-04-21 20:35:00,
2013-04-21 16:40:00,59.3,34.3,30.44,ESE,118,1.2,3.5,39,0.00,FEW,,0.00,WeatherDisplay:10.37,2013-04-21 20:40:00,
2013-04-21 16:45:00,59.7,35.9,30.44,East,84,0.4,3.5,41,0.00,FEW,,0.00,WeatherDisplay:10.37,2013-04-21 20:45:00,
2013-04-21 16:50:00,60.4,36.6,30.44,East,85,1.6,3.0,41,0.00,FEW,,0.00,WeatherDisplay:10.37,2013-04-21 20:50:00,
2013-04-21 16:55:00,60.2,35.8,30.44,East,96,1.2,3.5,40,0.00,FEW,,0.00,WeatherDisplay:10.37,2013-04-21 20:55:00,
2013-04-21 17:00:00,60.4,36.6,30.44,West,269,1.1,3.5,41,0.00,FEW,,0.00,WeatherDisplay:10.37,2013-04-21 21:00:00,
2013-04-21 17:05:00,60.4,35.3,30.44,NE,55,1.9,3.5,39,0.00,FEW,,0.00,WeatherDisplay:10.37,2013-04-21 21:05:00,
2013-04-21 17:10:00,59.9,34.9,30.43,ESE,104,1.3,4.6,39,0.00,FEW,,0.00,WeatherDisplay:10.37,2013-04-21 21:10:00,
2013-04-21 17:15:00,59.9,36.1,30.43,SE,138,0.0,2.3,41,0.00,FEW,,0.00,WeatherDisplay:10.37,2013-04-21 21:15:00,
2013-04-21 17:20:00,59.9,35.5,30.44,East,101,2.2,5.8,40,0.00,FEW,,0.00,WeatherDisplay:10.37,2013-04-21 21:20:00,
2013-04-21 17:25:00,59.5,36.4,30.44,West,260,0.2,2.3,42,0.00,FEW,,0.00,WeatherDisplay:10.37,2013-04-21 21:25:00,
2013-04-21 17:30:00,59.9,36.1,30.43,East,101,0.5,2.3,41,0.00,FEW,,0.00,WeatherDisplay:10.37,2013-04-21 21:30:00,
2013-04-21 17:35:00,60.1,35.7,30.43,ESE,114,1.7,3.5,40,0.00,FEW,,0.00,WeatherDisplay:10.37,2013-04-21 21:35:00,
2013-04-21 17:40:00,58.9,34.6,30.43,East,85,2.5,3.5,40,0.00,FEW,,0.00,WeatherDisplay:10.37,2013-04-21 21:40:00,
2013-04-21 17:45:00,58.0,33.8,30.44,NE,56,1.6,3.5,40,0.00,FEW,,0.00,WeatherDisplay:10.37,2013-04-21 21:45:00,
2013-04-21 17:50:00,58.1,34.5,30.43,East,93,0.2,2.3,41,0.00,FEW,,0.00,WeatherDisplay:10.37,2013-04-21 21:50:00,
2013-04-21 17:55:00,58.0,35.0,30.44,East,95,1.6,3.5,42,0.00,FEW,,0.00,WeatherDisplay:10.37,2013-04-21 21:55:00,
2013-04-21 18:00:00,58.4,36.6,30.43,ESE,110,0.0,1.1,44,0.00,FEW,,0.00,WeatherDisplay:10.37,2013-04-21 22:00:00,
2013-04-21 18:05:00,58.5,34.9,30.44,ENE,72,0.6,3.5,41,0.00,FEW,,0.00,WeatherDisplay:10.37,2013-04-21 22:05:00,
2013-04-21 18:10:00,57.8,35.4,30.44,East,80,0.4,2.3,43,0.00,FEW,,0.00,WeatherDisplay:10.37,2013-04-21 22:10:00,
2013-04-21 18:15:00,57.8,35.4,30.44,SW,232,0.5,2.3,43,0.00,FEW,,0.00,WeatherDisplay:10.37,2013-04-21 22:15:00,
2013-04-21 18:21:00,58.2,35.8,30.44,East,101,0.7,2.3,43,0.00,FEW,,0.00,WeatherDisplay:10.37,2013-04-21 22:21:00,
2013-04-21 18:26:00,58.4,35.4,30.44,East,100,0.0,1.1,42,0.00,FEW,,0.00,WeatherDisplay:10.37,2013-04-21 22:26:00,
2013-04-21 18:31:00,58.2,35.8,30.44,ESE,114,0.3,1.1,43,0.00,FEW,,0.00,WeatherDisplay:10.37,2013-04-21 22:31:00,
2013-04-21 18:36:00,58.4,36.6,30.44,NW,316,0.6,2.3,44,0.00,FEW,,0.00,WeatherDisplay:10.37,2013-04-21 22:36:00,
2013-04-21 18:41:00,58.2,35.8,30.44,East,87,0.1,2.3,43,0.00,FEW,,0.00,WeatherDisplay:10.37,2013-04-21 22:41:00,
2013-04-21 18:46:00,57.7,35.3,30.44,ENE,62,1.8,3.5,43,0.00,FEW,,0.00,WeatherDisplay:10.37,2013-04-21 22:46:00,
2013-04-21 18:51:00,57.6,35.2,30.44,ESE,112,0.3,2.3,43,0.00,FEW,,0.00,WeatherDisplay:10.37,2013-04-21 22:51:00,
2013-04-21 18:56:00,57.7,35.3,30.44,West,274,0.0,2.3,43,0.00,FEW,,0.00,WeatherDisplay:10.37,2013-04-21 22:56:00,
2013-04-21 19:01:00,57.8,36.0,30.44,East,98,0.3,2.3,44,0.00,FEW,,0.00,WeatherDisplay:10.37,2013-04-21 23:01:00,
2013-04-21 19:06:00,57.6,35.8,30.44,NW,311,0.1,1.1,44,0.00,FEW,,0.00,WeatherDisplay:10.37,2013-04-21 23:06:00,
2013-04-21 19:11:00,57.4,35.6,30.44,NW,323,0.0,0.0,44,0.00,FEW,,0.00,WeatherDisplay:10.37,2013-04-21 23:11:00,
2013-04-21 19:16:00,56.9,35.8,30.44,East,90,0.5,1.1,45,0.00,FEW,,0.00,WeatherDisplay:10.37,2013-04-21 23:16:00,
2013-04-21 19:21:00,56.1,35.0,30.44,East,98,0.0,0.0,45,0.00,FEW,,0.00,WeatherDisplay:10.37,2013-04-21 23:21:00,
2013-04-21 19:26:00,55.6,35.1,30.44,ESE,111,0.4,1.1,46,0.00,FEW,,0.00,WeatherDisplay:10.37,2013-04-21 23:26:00,
2013-04-21 19:31:00,55.2,35.3,30.44,NE,41,0.5,1.1,47,0.00,FEW,,0.00,WeatherDisplay:10.37,2013-04-21 23:31:00,
2013-04-21 19:36:00,54.9,35.6,30.44,NE,48,0.0,0.0,48,0.00,FEW,,0.00,WeatherDisplay:10.37,2013-04-21 23:36:00,
2013-04-21 19:41:00,54.5,35.2,30.44,East,85,0.4,1.1,48,0.00,FEW,,0.00,WeatherDisplay:10.37,2013-04-21 23:41:00,
2013-04-21 19:46:00,54.1,34.8,30.44,East,85,0.0,0.0,48,0.00,FEW,,0.00,WeatherDisplay:10.37,2013-04-21 23:46:00,
2013-04-21 19:51:00,53.6,34.9,30.45,East,85,0.0,1.1,49,0.00,FEW,,0.00,WeatherDisplay:10.37,2013-04-21 23:51:00,
2013-04-21 19:56:00,53.2,34.5,30.45,ENE,68,0.0,1.1,49,0.00,FEW,,0.00,WeatherDisplay:10.37,2013-04-21 23:56:00,
2013-04-21 20:02:00,52.7,35.1,30.45,WNW,302,0.0,2.3,51,0.00,FEW,,0.00,WeatherDisplay:10.37,2013-04-22 00:02:00,
2013-04-21 20:07:00,52.4,35.3,30.45,East,83,0.0,0.0,52,0.00,FEW,,0.00,WeatherDisplay:10.37,2013-04-22 00:07:00,
2013-04-21 20:12:00,52.1,35.5,30.45,East,82,0.0,1.1,53,0.00,FEW,,0.00,WeatherDisplay:10.37,2013-04-22 00:12:00,
2013-04-21 20:17:00,51.8,35.7,30.45,East,82,0.0,1.1,54,0.00,FEW,,0.00,WeatherDisplay:10.37,2013-04-22 00:17:00,
2013-04-21 20:23:00,51.5,35.4,30.45,North,6,0.0,0.0,54,0.00,FEW,,0.00,WeatherDisplay:10.37,2013-04-22 00:23:00,
2013-04-21 20:28:00,51.2,35.1,30.46,NNW,335,0.0,0.0,54,0.00,FEW,,0.00,WeatherDisplay:10.37,2013-04-22 00:28:00,
2013-04-21 20:33:00,50.9,35.7,30.46,NNW,334,0.0,1.1,56,0.00,FEW,,0.00,WeatherDisplay:10.37,2013-04-22 00:33:00,
2013-04-21 20:38:00,50.7,36.0,30.46,NNW,335,0.0,0.0,57,0.00,FEW,,0.00,WeatherDisplay:10.37,2013-04-22 00:38:00,
2013-04-21 20:44:00,50.5,35.8,30.47,NNW,335,0.0,0.0,57,0.00,FEW,,0.00,WeatherDisplay:10.37,2013-04-22 00:44:00,
2013-04-21 20:49:00,50.3,35.6,30.47,NNW,335,0.0,0.0,57,0.00,FEW,,0.00,WeatherDisplay:10.37,2013-04-22 00:49:00,
2013-04-21 20:54:00,49.9,35.7,30.47,NNW,335,0.0,0.0,58,0.00,FEW,,0.00,WeatherDisplay:10.37,2013-04-22 00:54:00,
2013-04-21 20:59:00,49.6,35.8,30.47,NNW,335,0.0,0.0,59,0.00,FEW,,0.00,WeatherDisplay:10.37,2013-04-22 00:59:00,
2013-04-21 21:04:00,49.3,36.0,30.47,NNW,335,0.0,0.0,60,0.00,CLR,,0.00,WeatherDisplay:10.37,2013-04-22 01:04:00,
2013-04-21 21:09:00,48.9,36.0,30.47,NNW,335,0.0,0.0,61,0.00,CLR,,0.00,WeatherDisplay:10.37,2013-04-22 01:09:00,
2013-04-21 21:15:00,48.5,36.1,30.48,NNW,335,0.0,0.0,62,0.00,CLR,,0.00,WeatherDisplay:10.37,2013-04-22 01:15:00,
2013-04-21 21:20:00,48.1,36.5,30.48,NNW,335,0.0,0.0,64,0.00,CLR,,0.00,WeatherDisplay:10.37,2013-04-22 01:20:00,
2013-04-21 21:25:00,47.7,36.1,30.48,NNW,335,0.0,0.0,64,0.00,CLR,,0.00,WeatherDisplay:10.37,2013-04-22 01:25:00,
2013-04-21 21:30:00,47.5,36.3,30.48,NNW,335,0.0,0.0,65,0.00,CLR,,0.00,WeatherDisplay:10.37,2013-04-22 01:30:00,
2013-04-21 21:35:00,47.2,36.0,30.49,NNW,335,0.0,0.0,65,0.00,CLR,,0.00,WeatherDisplay:10.37,2013-04-22 01:35:00,
2013-04-21 21:40:00,46.9,35.7,30.49,NNW,335,0.0,0.0,65,0.00,CLR,,0.00,WeatherDisplay:10.37,2013-04-22 01:40:00,
2013-04-21 21:45:00,46.7,36.3,30.49,NNW,335,0.0,0.0,67,0.00,CLR,,0.00,WeatherDisplay:10.37,2013-04-22 01:45:00,
2013-04-21 21:50:00,46.5,36.1,30.49,NNW,335,0.0,0.0,67,0.00,CLR,,0.00,WeatherDisplay:10.37,2013-04-22 01:50:00,
2013-04-21 21:55:00,46.3,35.9,30.49,NNW,335,0.0,0.0,67,0.00,CLR,,0.00,WeatherDisplay:10.37,2013-04-22 01:55:00,
2013-04-21 22:00:00,46.1,36.1,30.49,NNW,335,0.0,0.0,68,0.00,CLR,,0.00,WeatherDisplay:10.37,2013-04-22 02:00:00,
2013-04-21 22:05:00,45.9,36.3,30.49,NNW,335,0.0,1.1,69,0.00,CLR,,0.00,WeatherDisplay:10.37,2013-04-22 02:05:00,
2013-04-21 22:10:00,45.7,36.5,30.49,NNW,335,0.0,0.0,70,0.00,CLR,,0.00,WeatherDisplay:10.37,2013-04-22 02:10:00,
2013-04-21 22:15:00,45.6,36.4,30.49,NNW,335,0.0,1.1,70,0.00,CLR,,0.00,WeatherDisplay:10.37,2013-04-22 02:15:00,
2013-04-21 22:20:00,45.6,36.4,30.50,NNW,335,0.0,0.0,70,0.00,CLR,,0.00,WeatherDisplay:10.37,2013-04-22 02:20:00,
2013-04-21 22:25:00,45.5,35.9,30.50,NNW,335,0.0,0.0,69,0.00,CLR,,0.00,WeatherDisplay:10.37,2013-04-22 02:25:00,
2013-04-21 22:30:00,45.4,35.8,30.50,NNW,335,0.0,0.0,69,0.00,CLR,,0.00,WeatherDisplay:10.37,2013-04-22 02:30:00,
2013-04-21 22:35:00,45.3,35.7,30.50,NNW,335,0.0,0.0,69,0.00,CLR,,0.00,WeatherDisplay:10.37,2013-04-22 02:35:00,
2013-04-21 22:40:00,45.3,36.1,30.50,NW,325,0.0,0.0,70,0.00,CLR,,0.00,WeatherDisplay:10.37,2013-04-22 02:40:00,
2013-04-21 22:45:00,45.2,36.0,30.50,NW,324,0.0,0.0,70,0.00,CLR,,0.00,WeatherDisplay:10.37,2013-04-22 02:45:00,
2013-04-21 22:50:00,45.1,36.3,30.50,NW,324,0.0,0.0,71,0.00,CLR,,0.00,WeatherDisplay:10.37,2013-04-22 02:50:00,
2013-04-21 22:55:00,45.0,35.4,30.50,NW,325,0.0,0.0,69,0.00,CLR,,0.00,WeatherDisplay:10.37,2013-04-22 02:55:00,
2013-04-21 23:00:00,45.0,35.4,30.50,NNW,327,0.0,0.0,69,0.00,CLR,,0.00,WeatherDisplay:10.37,2013-04-22 03:00:00,
2013-04-21 23:05:00,44.9,35.3,30.50,NW,326,0.0,0.0,69,0.00,CLR,,0.00,WeatherDisplay:10.37,2013-04-22 03:05:00,
2013-04-21 23:10:00,44.6,35.8,30.50,NW,326,0.0,0.0,71,0.00,CLR,,0.00,WeatherDisplay:10.37,2013-04-22 03:10:00,
2013-04-21 23:15:00,44.3,35.8,30.50,NW,326,0.0,0.0,72,0.00,CLR,,0.00,WeatherDisplay:10.37,2013-04-22 03:15:00,
2013-04-21 23:20:00,44.2,35.7,30.50,South,187,0.1,1.0,72,0.00,CLR,,0.00,WeatherDisplay:10.37,2013-04-22 03:20:00,
2013-04-21 23:25:00,44.0,35.9,30.50,South,187,0.0,0.0,73,0.00,CLR,,0.00,WeatherDisplay:10.37,2013-04-22 03:25:00,
2013-04-21 23:30:00,43.9,36.1,30.49,South,188,0.0,0.0,74,0.00,CLR,,0.00,WeatherDisplay:10.37,2013-04-22 03:30:00,
2013-04-21 23:35:00,43.7,36.0,30.49,South,187,0.0,0.0,74,0.00,CLR,,0.00,WeatherDisplay:10.37,2013-04-22 03:35:00,
2013-04-21 23:40:00,43.8,36.4,30.49,South,187,0.0,0.0,75,0.00,CLR,,0.00,WeatherDisplay:10.37,2013-04-22 03:40:00,
2013-04-21 23:45:00,43.8,35.7,30.49,South,187,0.0,0.0,73,0.00,CLR,,0.00,WeatherDisplay:10.37,2013-04-22 03:45:00,
2013-04-21 23:50:00,43.9,35.8,30.49,South,188,0.0,0.0,73,0.00,CLR,,0.00,WeatherDisplay:10.37,2013-04-22 03:50:00,
2013-04-21 23:55:00,43.9,36.1,30.49,South,187,0.0,0.0,74,0.00,CLR,,0.00,WeatherDisplay:10.37,2013-04-22 03:55:00,